Flag for U.S.A. Weather past 2 weeks in Syracuse, New York, U.S.A.

Now
68 °F

Light rain. Mostly cloudy.


Feels Like: 68 °F
Forecast: 66 / 78 °F
Wind: 5 mph from Southeast

Location: Syracuse Hancock International Airport

Current Time: Aug 1, 2015 at 2:18:02 AM

Latest Report: Aug 1, 2015 at 1:54 AM


Visibility: 10 mi

Pressure: 29.75 "Hg

Humidity: 87%

Dew point: 64 °F

Location of SyracuseLocation

Historic Weather in Syracuse — Graph

°F

Syracuse temperature yesterday

Maximum temperature yesterday: 83 °F (at 2:54 PM)
Minimum temperature yesterday: 67 °F (at 5:54 AM)
Average temperature yesterday: 74 °F

Past Weeks' High & Low Weather Summary

 TemperatureHumidityPressure
High91 °F (Jul 29, 1:54 PM)100% (Jul 17, 4:54 AM)30.05 "Hg (Jul 17, 4:54 AM)
Low53 °F (Jul 17, 4:54 AM)29% (Jul 23, 6:54 PM)29.61 "Hg (Jul 21, 6:54 AM)
Average74 °F69%29.86 "Hg
* Reported Jul 17 12:54 AM — Aug 1 12:54 AM, Syracuse, Weather by CustomWeather, © 2015

Note: Actual official high and low records may vary slightly from our data, if they occured in-between our weather recording intervals... More about our weather records

Advertising

Syracuse weather history for previous 24 hours

 ConditionsComfort  
Time TempWeatherWind HumidityBarometerVisibility
12:54 AM
Sat, Aug 1
70 °FLight rain. Mostly cloudy.No wind76%29.78 "Hg10 mi
11:54 PM
Fri, Jul 31
70 °FPartly cloudy.7 mph76%29.77 "Hg10 mi
10:54 PM74 °FPassing clouds.8 mph67%29.76 "Hg10 mi
9:54 PM72 °FPassing clouds.No wind76%29.76 "Hg10 mi
8:54 PM71 °FScattered clouds.5 mph76%29.74 "Hg10 mi
7:54 PM76 °FPassing clouds.5 mph60%29.75 "Hg10 mi
6:54 PM76 °FScattered clouds.3 mph60%29.75 "Hg10 mi
5:54 PM80 °FPartly sunny.14 mph51%29.75 "Hg10 mi
4:54 PM83 °FScattered clouds.12 mph43%29.76 "Hg10 mi
3:54 PM83 °FPassing clouds.10 mph43%29.78 "Hg10 mi
2:54 PM83 °FScattered clouds.7 mph41%29.81 "Hg10 mi
1:54 PM81 °FScattered clouds.10 mph44%29.83 "Hg10 mi
12:54 PM80 °FPassing clouds.12 mph45%29.84 "Hg10 mi
11:54 AM78 °FPassing clouds.9 mph54%29.86 "Hg10 mi
10:54 AM76 °FPassing clouds.12 mph56%29.86 "Hg10 mi
9:54 AM74 °FPassing clouds.12 mph64%29.87 "Hg10 mi
8:54 AM72 °FScattered clouds.14 mph71%29.87 "Hg10 mi
7:54 AM70 °FPassing clouds.13 mph79%29.86 "Hg10 mi
6:54 AM68 °FPassing clouds.10 mph82%29.85 "Hg10 mi
5:54 AM67 °FPassing clouds.10 mph85%29.83 "Hg10 mi
4:54 AM69 °FPassing clouds.10 mph76%29.81 "Hg10 mi
3:54 AM69 °FPassing clouds.10 mph76%29.81 "Hg10 mi
2:54 AM71 °FPassing clouds.10 mph71%29.80 "Hg10 mi
Weather by CustomWeather, © 2015

See weather overviewHow to use our weather pages